Hutchinson, MN

2:11 PM CDT on September 23, 2017 (GMT -0500)
Hutchinson Municipal-Butler

Weather History for KHCD - December, 2013

Change the Weather History Date:

Saturday, December 21, 2013

  Actual Average Record
Temperature  
Mean Temperature 15 °F -  
Max Temperature 18 °F 23 °F 46 °F (1967)
Min Temperature 12 °F 5 °F -27 °F (1983)
Degree Days  
Heating Degree Days 50    
Moisture  
Dew Point 12 °F    
Average Humidity 88    
Maximum Humidity 94    
Minimum Humidity 81    
Precipitation  
Precipitation 0.00 in - - ()
Sea Level Pressure  
Sea Level Pressure 29.92 in    
Wind  
Wind Speed 4 mph (NNW)    
Max Wind Speed 9 mph    
Max Gust Speed 16 mph    
Visibility 8 miles    
Events Snow    
Averages and records for this station are not official NWS values.
T = Trace of Precipitation, MM = Missing Value Source: NWS Daily Summary

Daily Weather History Graph

Daily Weather History Graph

Search for Another Location

Airport or City:

Trip Planner

Search our weather history database for the weather conditions in past years. The results will help you decide how hot, cold, wet, or windy it might be!

Date:

Astronomy

Dec. 21, 2013 Rise Set
Actual Time 7:52 AM CST 4:39 PM CST
Civil Twilight 7:18 AM CST 5:13 PM CST
Nautical Twilight 6:41 AM CST 5:50 PM CST
Astronomical Twilight 6:05 AM CST 6:25 PM CST
Moon 9:06 PM CST (12/21) 10:09 AM CST (12/21)
Length of Visible Light 9h 54m
Length of Day
8h 47m
Waning Gibbous, 84% of the Moon is Illuminated
Dec 21
Waning Gibbous
Dec 25
Last Quarter
Jan 1
New
Jan 7
First Quarter
Jan 15
Full

Hourly Weather History & Observations

Time (CST) Temp. Windchill Dew Point Humidity Pressure Visibility Wind Dir Wind Speed Gust Speed Precip Events Conditions
12:13 AM 14.7 °F 7.3 °F 11.1 °F 86% 29.85 in 10.0 mi WNW 4.6 mph - N/A   Overcast
12:33 AM 14.7 °F 5.9 °F 10.9 °F 85% 29.85 in 10.0 mi WNW 5.8 mph - N/A   Overcast
12:53 AM 14.9 °F 7.5 °F 11.1 °F 85% 29.85 in 10.0 mi NW 4.6 mph - N/A   Overcast
1:13 AM 14.9 °F - 11.3 °F 86% 29.85 in 10.0 mi Calm Calm - N/A   Overcast
1:33 AM 14.9 °F - 11.3 °F 86% 29.85 in 10.0 mi Calm Calm - N/A   Overcast
1:53 AM 14.9 °F 7.5 °F 11.3 °F 86% 29.86 in 10.0 mi West 4.6 mph - N/A   Overcast
2:13 AM 14.9 °F 9.2 °F 11.3 °F 86% 29.86 in 10.0 mi WSW 3.5 mph - N/A   Overcast
2:34 AM 14.9 °F 7.5 °F 11.3 °F 86% 29.87 in 10.0 mi WSW 4.6 mph - N/A   Overcast
2:53 AM 14.7 °F 7.3 °F 11.8 °F 88% 29.87 in 10.0 mi WSW 4.6 mph - N/A   Overcast
3:14 AM 14.5 °F 7.1 °F 11.1 °F 86% 29.87 in 10.0 mi West 4.6 mph - N/A   Overcast
3:33 AM 14.4 °F 5.5 °F 10.9 °F 86% 29.87 in 10.0 mi WNW 5.8 mph - N/A   Overcast
3:53 AM 14.4 °F 3.3 °F 10.8 °F 86% 29.86 in 10.0 mi WNW 8.1 mph - N/A   Overcast
4:13 AM 14.0 °F 2.9 °F 11.8 °F 91% 29.86 in 10.0 mi NW 8.1 mph - N/A   Overcast
4:34 AM 13.8 °F 4.9 °F 12.2 °F 93% 29.84 in 7.0 mi NW 5.8 mph - N/A   Overcast
4:53 AM 13.8 °F 6.2 °F 12.2 °F 93% 29.85 in 7.0 mi NW 4.6 mph - N/A   Overcast
5:13 AM 13.6 °F 4.6 °F 12.2 °F 94% 29.84 in 7.0 mi NW 5.8 mph - N/A   Overcast
5:34 AM 13.5 °F 4.4 °F 11.8 °F 93% 29.86 in 10.0 mi NW 5.8 mph - N/A   Overcast
5:53 AM 12.2 °F 2.9 °F 10.4 °F 92% 29.85 in 7.0 mi NW 5.8 mph - N/A   Overcast
6:13 AM 12.2 °F 6.1 °F 10.4 °F 92% 29.86 in 7.0 mi NW 3.5 mph - N/A   Overcast
6:34 AM 12.7 °F 3.6 °F 10.9 °F 92% 29.86 in 7.0 mi NNW 5.8 mph - N/A   Overcast
6:53 AM 12.7 °F 6.7 °F 10.9 °F 92% 29.87 in 7.0 mi North 3.5 mph - N/A   Overcast
7:13 AM 12.9 °F - 11.1 °F 93% 29.88 in 7.0 mi Calm Calm - N/A   Overcast
7:34 AM 13.5 °F - 11.7 °F 93% 29.88 in 1.0 mi Calm Calm - N/A Snow Light Snow
7:53 AM 13.3 °F - 11.3 °F 92% 29.89 in 4.0 mi Calm Calm - N/A Snow Light Snow
8:13 AM 13.8 °F 8.0 °F 12.0 °F 93% 29.91 in 0.5 mi NNW 3.5 mph - N/A Snow Snow
8:33 AM 14.0 °F - 12.2 °F 93% 29.91 in 1.5 mi Calm Calm - N/A Snow Light Snow
8:53 AM 14.2 °F - 12.4 °F 93% 29.91 in 1.0 mi Calm Calm - N/A Snow Light Snow
9:13 AM 14.7 °F - 12.9 °F 93% 29.92 in 0.5 mi Calm Calm - N/A Snow Snow
9:33 AM 14.9 °F 9.2 °F 13.1 °F 93% 29.92 in 1.8 mi North 3.5 mph - N/A Snow Light Snow
9:53 AM 15.3 °F - 13.3 °F 92% 29.93 in 10.0 mi Calm Calm - N/A Snow Light Snow
10:14 AM 14.9 °F 6.1 °F 13.1 °F 93% 29.92 in 10.0 mi North 5.8 mph - N/A   Overcast
10:34 AM 15.3 °F 6.6 °F 13.1 °F 91% 29.94 in 10.0 mi NE 5.8 mph - N/A   Overcast
10:53 AM 15.4 °F 9.8 °F 13.5 °F 92% 29.96 in 10.0 mi North 3.5 mph - N/A   Overcast
11:13 AM 15.8 °F 8.6 °F 13.6 °F 91% 29.94 in 10.0 mi North 4.6 mph - N/A Snow Light Snow
11:33 AM 16.2 °F 10.6 °F 13.6 °F 90% 29.94 in 10.0 mi NE 3.5 mph - N/A   Overcast
11:54 AM 16.3 °F 10.8 °F 13.1 °F 87% 29.90 in 10.0 mi North 3.5 mph - N/A   Overcast
12:13 PM 16.7 °F 9.6 °F 13.3 °F 86% 29.90 in 7.0 mi North 4.6 mph - N/A Snow Light Snow
12:33 PM 16.7 °F 11.2 °F 12.9 °F 85% 29.93 in 7.0 mi North 3.5 mph - N/A Snow Light Snow
12:53 PM 17.6 °F 10.7 °F 13.3 °F 83% 29.94 in 7.0 mi NNW 4.6 mph - N/A Snow Light Snow
1:13 PM 17.1 °F 10.0 °F 12.9 °F 84% 29.92 in 7.0 mi North 4.6 mph - N/A Snow Light Snow
1:33 PM 17.4 °F 10.4 °F 13.1 °F 83% 29.92 in 10.0 mi North 4.6 mph - N/A Snow Light Snow
1:53 PM 17.8 °F 9.6 °F 13.5 °F 83% 29.92 in 10.0 mi North 5.8 mph - N/A Snow Light Snow
2:13 PM 18.0 °F 9.8 °F 13.3 °F 82% 29.95 in 10.0 mi NNE 5.8 mph - N/A Snow Light Snow
2:33 PM 18.0 °F 11.1 °F 13.1 °F 81% 29.94 in 10.0 mi NNE 4.6 mph - N/A Snow Light Snow
2:54 PM 18.1 °F 12.9 °F 13.6 °F 83% 29.92 in 7.0 mi North 3.5 mph - N/A Snow Light Snow
3:13 PM 18.0 °F 11.1 °F 13.6 °F 83% 29.94 in 7.0 mi North 4.6 mph - N/A Snow Light Snow
3:33 PM 18.1 °F 11.3 °F 14.0 °F 84% 29.97 in 7.0 mi North 4.6 mph - N/A Snow Light Snow
3:54 PM 17.6 °F 12.3 °F 13.6 °F 84% 29.95 in 7.0 mi North 3.5 mph - N/A Snow Light Snow
4:13 PM 17.6 °F 7.3 °F 13.6 °F 84% 29.95 in 10.0 mi North 8.1 mph - N/A Snow Light Snow
4:33 PM 17.6 °F 9.3 °F 13.6 °F 84% 29.95 in 10.0 mi North 5.8 mph - N/A Snow Light Snow
4:53 PM 17.2 °F 10.2 °F 13.3 °F 84% 29.96 in 10.0 mi North 4.6 mph - N/A Snow Light Snow
5:13 PM 17.2 °F 7.8 °F 13.1 °F 84% 29.95 in 10.0 mi North 6.9 mph - N/A Snow Light Snow
5:33 PM 16.7 °F 8.3 °F 13.1 °F 86% 29.95 in 10.0 mi North 5.8 mph - N/A Snow Light Snow
5:54 PM 16.7 °F 9.6 °F 13.1 °F 86% 29.97 in 10.0 mi North 4.6 mph - N/A Snow Light Snow
6:13 PM 16.7 °F 9.6 °F 13.1 °F 86% 29.97 in 10.0 mi North 4.6 mph - N/A   Overcast
6:33 PM 16.3 °F 6.7 °F 12.9 °F 86% 29.99 in 10.0 mi North 6.9 mph - N/A Snow Light Snow
6:53 PM 16.2 °F 9.0 °F 12.9 °F 87% 29.99 in 10.0 mi North 4.6 mph - N/A Snow Light Snow
7:14 PM 15.8 °F 6.1 °F 12.7 °F 88% 29.99 in 10.0 mi North 6.9 mph - N/A Snow Light Snow
7:33 PM 15.8 °F 5.1 °F 12.7 °F 88% 29.97 in 10.0 mi North 8.1 mph - N/A Snow Light Snow
7:54 PM 15.6 °F 5.9 °F 12.7 °F 88% 29.97 in 10.0 mi North 6.9 mph - N/A Snow Light Snow
8:13 PM 15.3 °F 5.4 °F 12.2 °F 88% 29.98 in 10.0 mi North 6.9 mph - N/A Snow Light Snow
8:34 PM 15.3 °F 4.4 °F 12.2 °F 88% 29.96 in 10.0 mi North 8.1 mph 16.1 mph N/A   Overcast
8:53 PM 14.9 °F 5.0 °F 12.0 °F 88% 29.95 in 10.0 mi North 6.9 mph - N/A   Overcast
9:13 PM 14.9 °F 5.0 °F 12.2 °F 89% 29.95 in 10.0 mi North 6.9 mph - N/A   Overcast
9:33 PM 15.3 °F 3.5 °F 12.2 °F 88% 29.94 in 10.0 mi North 9.2 mph - N/A Snow Light Snow
9:53 PM 14.9 °F 3.1 °F 11.8 °F 88% 29.94 in 10.0 mi North 9.2 mph 16.1 mph N/A   Overcast
10:13 PM 14.9 °F 7.5 °F 12.0 °F 88% 29.95 in 10.0 mi North 4.6 mph - N/A Snow Light Snow
10:33 PM 14.9 °F 7.5 °F 12.0 °F 88% 29.96 in 10.0 mi North 4.6 mph - N/A   Overcast
10:54 PM 14.7 °F 7.3 °F 12.0 °F 89% 29.97 in 10.0 mi North 4.6 mph - N/A Snow Light Snow
11:13 PM 14.5 °F 4.6 °F 11.8 °F 89% 29.97 in 10.0 mi NNW 6.9 mph - N/A Snow Light Snow
11:33 PM 14.2 °F 5.3 °F 11.7 °F 90% 29.97 in 10.0 mi North 5.8 mph - N/A Snow Light Snow
11:53 PM 14.0 °F 3.9 °F 11.1 °F 88% 29.96 in 10.0 mi North 6.9 mph - N/A Snow Light Snow